Time,TemperatureF,DewpointF,PressureIn,WindDirection,WindDirectionDegrees,WindSpeedMPH,WindSpeedGustMPH,Humidity,HourlyPrecipIn,Conditions,Clouds,dailyrainin,SoftwareType,DateUTC
2013-01-24 00:00:00,-5.3,-11.2,30.11,West,280,1.6,2.3,75,0.00,,,0.00,WeatherDisplay:10.37,2013-01-24 05:00:00,
2013-01-24 00:02:00,-5.2,-11.1,30.11,WNW,288,1.7,3.5,75,0.00,,,0.00,WeatherDisplay:10.37,2013-01-24 05:02:00,
2013-01-24 00:07:00,-4.9,-10.8,30.11,NW,306,2.3,3.5,75,0.00,,,0.00,WeatherDisplay:10.37,2013-01-24 05:07:00,
2013-01-24 00:12:00,-4.5,-10.7,30.11,WNW,292,1.5,3.5,74,0.00,,,0.00,WeatherDisplay:10.37,2013-01-24 05:12:00,
2013-01-24 00:17:00,-4.2,-10.7,30.11,West,281,2.5,3.5,73,0.00,,,0.00,WeatherDisplay:10.37,2013-01-24 05:17:00,
2013-01-24 00:22:00,-4.0,-11.0,30.12,WNW,302,2.3,3.5,71,0.00,,,0.00,WeatherDisplay:10.37,2013-01-24 05:22:00,
2013-01-24 00:27:00,-3.7,-11.0,30.11,WNW,282,1.1,2.3,70,0.00,,,0.00,WeatherDisplay:10.37,2013-01-24 05:27:00,
2013-01-24 00:32:00,-3.5,-11.1,30.12,WNW,294,1.7,3.5,69,0.00,,,0.00,WeatherDisplay:10.37,2013-01-24 05:32:00,
2013-01-24 00:37:00,-3.3,-11.2,30.12,NNW,338,1.4,3.5,68,0.00,,,0.00,WeatherDisplay:10.37,2013-01-24 05:37:00,
2013-01-24 00:42:00,-3.2,-11.4,30.12,NNW,338,0.5,1.1,67,0.00,,,0.00,WeatherDisplay:10.37,2013-01-24 05:42:00,
2013-01-24 00:47:00,-3.1,-11.3,30.12,NE,34,1.0,2.3,67,0.00,,,0.00,WeatherDisplay:10.37,2013-01-24 05:47:00,
2013-01-24 00:52:00,-3.1,-11.3,30.12,NE,34,0.7,1.0,67,0.00,,,0.00,WeatherDisplay:10.37,2013-01-24 05:52:00,
2013-01-24 00:57:00,-3.2,-11.1,30.12,SSE,152,0.3,2.3,68,0.00,,,0.00,WeatherDisplay:10.37,2013-01-24 05:57:00,
2013-01-24 01:02:00,-3.4,-11.0,30.12,SSE,152,0.7,2.0,69,0.00,,,0.00,WeatherDisplay:10.37,2013-01-24 06:02:00,
2013-01-24 01:07:00,-3.4,-11.3,30.12,SSE,152,0.3,2.3,68,0.00,,,0.00,WeatherDisplay:10.37,2013-01-24 06:07:00,
2013-01-24 01:12:00,-3.5,-11.7,30.12,SW,216,0.8,1.1,67,0.00,,,0.00,WeatherDisplay:10.37,2013-01-24 06:12:00,
2013-01-24 01:17:00,-3.5,-11.7,30.12,NW,311,0.3,1.1,67,0.00,,,0.00,WeatherDisplay:10.37,2013-01-24 06:17:00,
2013-01-24 01:22:00,-3.4,-11.3,30.12,NW,311,0.1,2.3,68,0.00,,,0.00,WeatherDisplay:10.37,2013-01-24 06:22:00,
2013-01-24 01:27:00,-3.3,-11.8,30.12,NW,311,0.0,1.1,66,0.00,,,0.00,WeatherDisplay:10.37,2013-01-24 06:27:00,
2013-01-24 01:32:00,-3.3,-11.8,30.12,West,262,0.8,1.1,66,0.00,,,0.00,WeatherDisplay:10.37,2013-01-24 06:32:00,
2013-01-24 01:37:00,-3.3,-11.8,30.12,West,262,0.1,0.0,66,0.00,,,0.00,WeatherDisplay:10.37,2013-01-24 06:37:00,
2013-01-24 01:42:00,-3.3,-12.1,30.13,West,262,0.1,1.0,65,0.00,,,0.00,WeatherDisplay:10.37,2013-01-24 06:42:00,
2013-01-24 01:47:00,-3.4,-12.2,30.12,NNE,26,0.1,2.3,65,0.00,,,0.00,WeatherDisplay:10.37,2013-01-24 06:47:00,
2013-01-24 01:52:00,-3.5,-12.0,30.13,NNE,26,0.0,0.0,66,0.00,,,0.00,WeatherDisplay:10.37,2013-01-24 06:52:00,
2013-01-24 01:57:00,-3.5,-12.3,30.13,NW,307,0.6,1.0,65,0.00,,,0.00,WeatherDisplay:10.37,2013-01-24 06:57:00,
2013-01-24 02:02:00,-3.5,-12.3,30.13,NW,311,0.1,1.1,65,0.00,,,0.00,WeatherDisplay:10.37,2013-01-24 07:02:00,
2013-01-24 02:07:00,-3.5,-12.3,30.13,NW,311,0.0,0.0,65,0.00,,,0.00,WeatherDisplay:10.37,2013-01-24 07:07:00,
2013-01-24 02:12:00,-3.7,-12.5,30.12,NW,311,0.0,0.0,65,0.00,,,0.00,WeatherDisplay:10.37,2013-01-24 07:12:00,
2013-01-24 02:18:00,-4.0,-12.2,30.12,NW,311,0.0,2.3,67,0.00,,,0.00,WeatherDisplay:10.37,2013-01-24 07:18:00,
2013-01-24 02:23:00,-4.4,-12.0,30.12,NW,311,0.0,0.0,69,0.00,,,0.00,WeatherDisplay:10.37,2013-01-24 07:23:00,
2013-01-24 02:28:00,-4.6,-12.2,30.12,NW,311,0.0,0.0,69,0.00,,,0.00,WeatherDisplay:10.37,2013-01-24 07:28:00,
2013-01-24 02:33:00,-4.9,-12.2,30.12,NW,311,0.0,0.0,70,0.00,,,0.00,WeatherDisplay:10.37,2013-01-24 07:33:00,
2013-01-24 02:38:00,-5.2,-12.5,30.12,NW,311,0.4,2.3,70,0.00,,,0.00,WeatherDisplay:10.37,2013-01-24 07:38:00,
2013-01-24 02:43:00,-5.4,-12.4,30.12,NW,311,0.1,1.1,71,0.00,,,0.00,WeatherDisplay:10.37,2013-01-24 07:43:00,
2013-01-24 02:48:00,-5.5,-12.5,30.12,NW,311,0.2,2.3,71,0.00,,,0.00,WeatherDisplay:10.37,2013-01-24 07:48:00,
2013-01-24 02:53:00,-5.6,-12.6,30.11,NW,311,0.6,1.1,71,0.00,,,0.00,WeatherDisplay:10.37,2013-01-24 07:53:00,
2013-01-24 02:58:00,-5.4,-12.7,30.11,WNW,300,1.2,3.5,70,0.00,,,0.00,WeatherDisplay:10.37,2013-01-24 07:58:00,
2013-01-24 03:03:00,-5.2,-12.8,30.11,WNW,300,0.7,2.3,69,0.00,,,0.00,WeatherDisplay:10.37,2013-01-24 08:03:00,
2013-01-24 03:08:00,-5.1,-13.0,30.11,WNW,300,0.6,1.1,68,0.00,,,0.00,WeatherDisplay:10.37,2013-01-24 08:08:00,
2013-01-24 03:13:00,-5.0,-13.2,30.11,WNW,286,0.1,1.1,67,0.00,,,0.00,WeatherDisplay:10.37,2013-01-24 08:13:00,
2013-01-24 03:18:00,-4.9,-13.1,30.11,WNW,286,0.9,2.3,67,0.00,,,0.00,WeatherDisplay:10.37,2013-01-24 08:18:00,
2013-01-24 03:23:00,-4.9,-13.1,30.11,WNW,286,0.5,1.1,67,0.00,,,0.00,WeatherDisplay:10.37,2013-01-24 08:23:00,
2013-01-24 03:28:00,-4.9,-13.4,30.11,WNW,286,0.3,1.1,66,0.00,,,0.00,WeatherDisplay:10.37,2013-01-24 08:28:00,
2013-01-24 03:33:00,-4.9,-13.4,30.11,WNW,286,0.9,2.3,66,0.00,,,0.00,WeatherDisplay:10.37,2013-01-24 08:33:00,
2013-01-24 03:38:00,-4.9,-13.4,30.11,WNW,286,0.6,2.3,66,0.00,,,0.00,WeatherDisplay:10.37,2013-01-24 08:38:00,
2013-01-24 03:43:00,-5.0,-13.5,30.11,West,272,0.9,3.5,66,0.00,,,0.00,WeatherDisplay:10.37,2013-01-24 08:43:00,
2013-01-24 03:48:00,-5.0,-13.2,30.11,West,272,0.1,1.0,67,0.00,,,0.00,WeatherDisplay:10.37,2013-01-24 08:48:00,
2013-01-24 03:53:00,-5.2,-13.4,30.11,West,272,0.8,1.1,67,0.00,,,0.00,WeatherDisplay:10.37,2013-01-24 08:53:00,
2013-01-24 03:58:00,-5.5,-13.1,30.11,West,272,0.5,2.3,69,0.00,,,0.00,WeatherDisplay:10.37,2013-01-24 08:58:00,
2013-01-24 04:03:00,-5.6,-13.4,30.11,West,272,0.8,2.3,68,0.00,,,0.00,WeatherDisplay:10.37,2013-01-24 09:03:00,
2013-01-24 04:08:00,-5.5,-13.6,30.11,NW,311,1.4,3.5,67,0.00,,,0.00,WeatherDisplay:10.37,2013-01-24 09:08:00,
2013-01-24 04:13:00,-5.4,-13.5,30.11,NW,308,0.6,2.3,67,0.00,,,0.00,WeatherDisplay:10.37,2013-01-24 09:13:00,
2013-01-24 04:18:00,-5.3,-13.5,30.12,West,280,0.5,1.1,67,0.00,,,0.00,WeatherDisplay:10.37,2013-01-24 09:18:00,
2013-01-24 04:23:00,-5.3,-13.5,30.11,West,261,1.0,3.0,67,0.00,,,0.00,WeatherDisplay:10.37,2013-01-24 09:23:00,
2013-01-24 04:28:00,-5.3,-13.5,30.11,NW,310,1.1,3.5,67,0.00,,,0.00,WeatherDisplay:10.37,2013-01-24 09:28:00,
2013-01-24 04:33:00,-5.1,-13.6,30.11,WNW,300,1.2,2.3,66,0.00,,,0.00,WeatherDisplay:10.37,2013-01-24 09:33:00,
2013-01-24 04:38:00,-4.9,-13.4,30.11,NW,314,0.8,2.3,66,0.00,,,0.00,WeatherDisplay:10.37,2013-01-24 09:38:00,
2013-01-24 04:43:00,-4.8,-13.6,30.11,WNW,303,0.2,1.1,65,0.00,,,0.00,WeatherDisplay:10.37,2013-01-24 09:43:00,
2013-01-24 04:48:00,-4.8,-13.6,30.11,NW,304,1.0,2.3,65,0.00,,,0.00,WeatherDisplay:10.37,2013-01-24 09:48:00,
2013-01-24 04:53:00,-4.8,-13.6,30.11,NW,325,0.0,1.1,65,0.00,,,0.00,WeatherDisplay:10.37,2013-01-24 09:53:00,
2013-01-24 04:58:00,-4.8,-13.6,30.11,NW,325,0.0,0.0,65,0.00,,,0.00,WeatherDisplay:10.37,2013-01-24 09:58:00,
2013-01-24 05:03:00,-4.9,-13.4,30.11,NW,325,0.0,0.0,66,0.00,,,0.00,WeatherDisplay:10.37,2013-01-24 10:03:00,
2013-01-24 05:08:00,-5.2,-13.7,30.11,NW,325,0.0,0.0,66,0.00,,,0.00,WeatherDisplay:10.37,2013-01-24 10:08:00,
2013-01-24 05:13:00,-5.5,-13.6,30.11,NW,325,0.7,2.3,67,0.00,,,0.00,WeatherDisplay:10.37,2013-01-24 10:13:00,
2013-01-24 05:18:00,-5.4,-13.3,30.11,WSW,240,2.0,3.0,68,0.00,,,0.00,WeatherDisplay:10.37,2013-01-24 10:18:00,
2013-01-24 05:23:00,-5.2,-13.7,30.11,West,259,1.0,2.3,66,0.00,,,0.00,WeatherDisplay:10.37,2013-01-24 10:23:00,
2013-01-24 05:28:00,-5.4,-13.5,30.11,West,259,1.7,2.3,67,0.00,,,0.00,WeatherDisplay:10.37,2013-01-24 10:28:00,
2013-01-24 05:33:00,-5.8,-13.3,30.11,West,259,0.6,2.3,69,0.00,,,0.00,WeatherDisplay:10.37,2013-01-24 10:33:00,
2013-01-24 05:38:00,-6.1,-13.1,30.11,West,259,0.3,2.3,71,0.00,,,0.00,WeatherDisplay:10.37,2013-01-24 10:38:00,
2013-01-24 05:43:00,-6.6,-13.5,30.11,West,259,0.2,1.1,71,0.00,,,0.00,WeatherDisplay:10.37,2013-01-24 10:43:00,
2013-01-24 05:49:00,-7.3,-13.9,30.11,WNW,299,0.4,2.3,72,0.00,,,0.00,WeatherDisplay:10.37,2013-01-24 10:49:00,
2013-01-24 05:54:00,-7.8,-13.9,30.11,WNW,299,0.1,2.0,74,0.00,,,0.00,WeatherDisplay:10.37,2013-01-24 10:54:00,
2013-01-24 05:59:00,-8.1,-13.9,30.12,WNW,299,0.5,1.1,75,0.00,,,0.00,WeatherDisplay:10.37,2013-01-24 10:59:00,
2013-01-24 06:04:00,-8.4,-13.7,30.11,WNW,299,0.0,0.0,77,0.00,,,0.00,WeatherDisplay:10.37,2013-01-24 11:04:00,
2013-01-24 06:09:00,-8.4,-13.7,30.11,WNW,299,0.0,0.0,77,0.00,,,0.00,WeatherDisplay:10.37,2013-01-24 11:09:00,
2013-01-24 06:14:00,-8.2,-13.2,30.11,WNW,299,0.3,1.1,78,0.00,,,0.00,WeatherDisplay:10.37,2013-01-24 11:14:00,
2013-01-24 06:19:00,-8.1,-13.1,30.12,WNW,299,0.0,0.0,78,0.00,,,0.00,WeatherDisplay:10.37,2013-01-24 11:19:00,
2013-01-24 06:24:00,-8.0,-13.0,30.12,WNW,299,0.0,0.0,78,0.00,,,0.00,WeatherDisplay:10.37,2013-01-24 11:24:00,
2013-01-24 06:29:00,-8.0,-13.0,30.13,WNW,299,0.0,0.0,78,0.00,,,0.00,WeatherDisplay:10.37,2013-01-24 11:29:00,
2013-01-24 06:34:00,-7.8,-13.1,30.13,WNW,299,0.0,0.0,77,0.00,,,0.00,WeatherDisplay:10.37,2013-01-24 11:34:00,
2013-01-24 06:39:00,-7.6,-12.9,30.13,WNW,299,0.0,1.0,77,0.00,,,0.00,WeatherDisplay:10.37,2013-01-24 11:39:00,
2013-01-24 06:44:00,-7.5,-12.8,30.13,WNW,299,0.0,0.0,77,0.00,,,0.00,WeatherDisplay:10.37,2013-01-24 11:44:00,
2013-01-24 06:49:00,-7.6,-12.9,30.13,WNW,299,0.7,2.3,77,0.00,,,0.00,WeatherDisplay:10.37,2013-01-24 11:49:00,
2013-01-24 06:54:00,-7.9,-13.5,30.13,NW,304,0.9,3.5,76,0.00,,,0.00,WeatherDisplay:10.37,2013-01-24 11:54:00,
2013-01-24 06:59:00,-7.6,-13.4,30.13,NNW,330,0.1,1.1,75,0.00,,,0.00,WeatherDisplay:10.37,2013-01-24 11:59:00,
2013-01-24 07:04:00,-7.3,-13.1,30.13,North,5,0.9,2.3,75,0.00,,,0.00,WeatherDisplay:10.37,2013-01-24 12:04:00,
2013-01-24 07:09:00,-7.1,-12.9,30.13,North,5,0.2,2.3,75,0.00,,,0.00,WeatherDisplay:10.37,2013-01-24 12:09:00,
2013-01-24 07:14:00,-6.8,-12.9,30.13,WNW,285,0.0,1.1,74,0.00,,,0.00,WeatherDisplay:10.37,2013-01-24 12:14:00,
2013-01-24 07:19:00,-6.7,-13.1,30.13,WNW,302,0.0,0.0,73,0.00,,,0.00,WeatherDisplay:10.37,2013-01-24 12:19:00,
2013-01-24 07:24:00,-6.7,-13.1,30.13,WNW,302,0.0,0.0,73,0.00,,,0.00,WeatherDisplay:10.37,2013-01-24 12:24:00,
2013-01-24 07:29:00,-6.4,-12.8,30.13,WNW,302,0.0,0.0,73,0.00,,,0.00,WeatherDisplay:10.37,2013-01-24 12:29:00,
2013-01-24 07:34:00,-6.2,-12.9,30.14,WNW,302,0.1,1.1,72,0.00,,,0.00,WeatherDisplay:10.37,2013-01-24 12:34:00,
2013-01-24 07:39:00,-6.0,-12.7,30.14,WNW,302,0.4,2.3,72,0.00,,,0.00,WeatherDisplay:10.37,2013-01-24 12:39:00,
2013-01-24 07:44:00,-5.6,-12.6,30.13,South,178,0.0,1.1,71,0.00,,,0.00,WeatherDisplay:10.37,2013-01-24 12:44:00,
2013-01-24 07:49:00,-5.3,-12.3,30.13,WNW,282,1.0,2.3,71,0.00,,,0.00,WeatherDisplay:10.37,2013-01-24 12:49:00,
2013-01-24 07:54:00,-5.1,-12.7,30.13,WNW,282,0.4,1.1,69,0.00,,,0.00,WeatherDisplay:10.37,2013-01-24 12:54:00,
2013-01-24 07:59:00,-5.0,-12.6,30.14,WNW,282,0.0,0.0,69,0.00,,,0.00,WeatherDisplay:10.37,2013-01-24 12:59:00,
2013-01-24 08:04:00,-4.8,-12.4,30.14,West,263,3.3,3.5,69,0.00,,,0.00,WeatherDisplay:10.37,2013-01-24 13:04:00,
2013-01-24 08:09:00,-4.4,-12.3,30.15,East,91,0.7,2.3,68,0.00,,,0.00,WeatherDisplay:10.37,2013-01-24 13:09:00,
2013-01-24 08:14:00,-4.2,-11.8,30.15,WNW,288,1.5,3.5,69,0.00,,,0.00,WeatherDisplay:10.37,2013-01-24 13:14:00,
2013-01-24 08:19:00,-4.0,-11.9,30.15,WNW,288,0.5,1.1,68,0.00,,,0.00,WeatherDisplay:10.37,2013-01-24 13:19:00,
2013-01-24 08:24:00,-3.8,-12.0,30.15,NW,305,1.3,2.3,67,0.00,,,0.00,WeatherDisplay:10.37,2013-01-24 13:24:00,
2013-01-24 08:29:00,-3.6,-11.8,30.15,NNW,338,1.1,3.5,67,0.00,,,0.00,WeatherDisplay:10.37,2013-01-24 13:29:00,
2013-01-24 08:34:00,-3.3,-11.8,30.15,North,349,1.0,3.5,66,0.00,,,0.00,WeatherDisplay:10.37,2013-01-24 13:34:00,
2013-01-24 08:39:00,-2.9,-11.8,30.15,WNW,298,0.9,3.5,65,0.00,,,0.00,WeatherDisplay:10.37,2013-01-24 13:39:00,
2013-01-24 08:44:00,-2.4,-11.9,30.15,NW,319,2.6,5.8,63,0.00,,,0.00,WeatherDisplay:10.37,2013-01-24 13:44:00,
2013-01-24 08:49:00,-2.0,-11.5,30.15,NW,319,0.2,1.1,63,0.00,,,0.00,WeatherDisplay:10.37,2013-01-24 13:49:00,
2013-01-24 08:54:00,-1.8,-11.7,30.15,NW,319,0.2,1.1,62,0.00,,,0.00,WeatherDisplay:10.37,2013-01-24 13:54:00,
2013-01-24 08:59:00,-1.5,-11.4,30.15,WSW,250,1.0,2.3,62,0.00,,,0.00,WeatherDisplay:10.37,2013-01-24 13:59:00,
2013-01-24 09:04:00,-1.2,-10.8,30.15,WSW,250,0.0,2.3,63,0.00,,,0.00,WeatherDisplay:10.37,2013-01-24 14:04:00,
2013-01-24 09:09:00,-0.8,-10.4,30.15,NW,314,0.4,2.0,63,0.00,,,0.00,WeatherDisplay:10.37,2013-01-24 14:09:00,
2013-01-24 09:14:00,-0.3,-10.9,30.15,WNW,293,0.6,1.1,60,0.00,,,0.00,WeatherDisplay:10.37,2013-01-24 14:14:00,
2013-01-24 09:19:00,0.1,-10.2,30.15,NW,313,1.8,3.5,61,0.00,,,0.00,WeatherDisplay:10.37,2013-01-24 14:19:00,
2013-01-24 09:24:00,0.7,-10.6,30.15,NW,315,2.0,3.5,58,0.00,,,0.00,WeatherDisplay:10.37,2013-01-24 14:24:00,
2013-01-24 09:29:00,1.2,-10.5,30.15,WNW,292,1.1,3.5,57,0.00,,,0.00,WeatherDisplay:10.37,2013-01-24 14:29:00,
2013-01-24 09:34:00,1.5,-10.2,30.15,NW,316,2.0,3.5,57,0.00,,,0.00,WeatherDisplay:10.37,2013-01-24 14:34:00,
2013-01-24 09:39:00,1.9,-10.6,30.15,ESE,108,2.6,7.0,55,0.00,,,0.00,WeatherDisplay:10.37,2013-01-24 14:39:00,
2013-01-24 09:44:00,2.3,-10.6,30.15,WNW,284,1.3,3.5,54,0.00,,,0.00,WeatherDisplay:10.37,2013-01-24 14:44:00,
2013-01-24 09:49:00,2.6,-10.7,30.15,West,264,1.7,3.5,53,0.00,,,0.00,WeatherDisplay:10.37,2013-01-24 14:49:00,
2013-01-24 09:54:00,2.9,-10.8,30.15,NW,315,2.2,3.5,52,0.00,,,0.00,WeatherDisplay:10.37,2013-01-24 14:54:00,
2013-01-24 09:59:00,3.3,-10.4,30.15,NNW,327,1.5,3.5,52,0.00,,,0.00,WeatherDisplay:10.37,2013-01-24 14:59:00,
2013-01-24 10:04:00,3.6,-10.5,30.15,NE,38,6.1,8.1,51,0.00,,,0.00,WeatherDisplay:10.37,2013-01-24 15:04:00,
2013-01-24 10:09:00,3.9,-10.2,30.15,North,5,0.2,2.3,51,0.00,,,0.00,WeatherDisplay:10.37,2013-01-24 15:09:00,
2013-01-24 10:14:00,4.2,-10.0,30.15,NW,320,1.5,3.5,51,0.00,,,0.00,WeatherDisplay:10.37,2013-01-24 15:14:00,
2013-01-24 10:19:00,4.4,-9.8,30.15,NW,306,2.1,2.3,51,0.00,,,0.00,WeatherDisplay:10.37,2013-01-24 15:19:00,
2013-01-24 10:24:00,4.6,-9.2,30.15,NW,305,0.7,3.5,52,0.00,,,0.00,WeatherDisplay:10.37,2013-01-24 15:24:00,
2013-01-24 10:29:00,4.8,-9.4,30.15,WNW,299,1.2,3.5,51,0.00,,,0.00,WeatherDisplay:10.37,2013-01-24 15:29:00,
2013-01-24 10:34:00,5.0,-9.6,30.15,NNW,343,1.5,2.3,50,0.00,,,0.00,WeatherDisplay:10.37,2013-01-24 15:34:00,
2013-01-24 10:39:00,5.2,-9.4,30.14,NW,305,2.1,2.3,50,0.00,,,0.00,WeatherDisplay:10.37,2013-01-24 15:39:00,
2013-01-24 10:44:00,5.4,-9.2,30.14,NNW,330,1.8,2.3,50,0.00,,,0.00,WeatherDisplay:10.37,2013-01-24 15:44:00,
2013-01-24 10:49:00,5.4,-9.7,30.14,West,279,3.2,3.5,49,0.00,,,0.00,WeatherDisplay:10.37,2013-01-24 15:49:00,
2013-01-24 10:54:00,5.6,-9.5,30.15,North,10,2.6,3.5,49,0.00,,,0.00,WeatherDisplay:10.37,2013-01-24 15:54:00,
2013-01-24 10:59:00,5.9,-9.6,30.15,WNW,288,1.5,3.0,48,0.00,,,0.00,WeatherDisplay:10.37,2013-01-24 15:59:00,
2013-01-24 11:04:00,6.2,-8.9,30.14,West,279,2.3,3.0,49,0.00,,,0.00,WeatherDisplay:10.37,2013-01-24 16:04:00,
2013-01-24 11:09:00,6.3,-10.1,30.14,WNW,288,2.8,4.0,46,0.00,,,0.00,WeatherDisplay:10.37,2013-01-24 16:09:00,
2013-01-24 11:14:00,6.5,-9.9,30.14,NW,320,1.4,3.5,46,0.00,,,0.00,WeatherDisplay:10.37,2013-01-24 16:14:00,
2013-01-24 11:19:00,6.8,-9.2,30.14,NW,309,3.3,4.6,47,0.00,,,0.00,WeatherDisplay:10.37,2013-01-24 16:19:00,
2013-01-24 11:24:00,7.3,-9.2,30.13,NW,309,2.5,3.5,46,0.00,,,0.00,WeatherDisplay:10.37,2013-01-24 16:24:00,
2013-01-24 11:29:00,7.9,-9.1,30.13,West,281,7.4,8.1,45,0.00,,,0.00,WeatherDisplay:10.37,2013-01-24 16:29:00,
2013-01-24 11:34:00,8.2,-9.3,30.14,North,349,7.1,12.7,44,0.00,,,0.00,WeatherDisplay:10.37,2013-01-24 16:34:00,
2013-01-24 11:39:00,8.1,-9.8,30.13,NW,323,4.6,14.0,43,0.00,,,0.00,WeatherDisplay:10.37,2013-01-24 16:39:00,
2013-01-24 11:44:00,8.2,-8.8,30.13,WNW,292,2.7,4.6,45,0.00,,,0.00,WeatherDisplay:10.37,2013-01-24 16:44:00,
2013-01-24 11:49:00,8.4,-8.6,30.13,West,279,5.7,10.0,45,0.00,,,0.00,WeatherDisplay:10.37,2013-01-24 16:49:00,
2013-01-24 11:54:00,8.4,-9.5,30.12,NNW,333,6.0,11.5,43,0.00,,,0.00,WeatherDisplay:10.37,2013-01-24 16:54:00,
2013-01-24 11:59:00,8.7,-8.8,30.12,NW,314,8.2,10.4,44,0.00,,,0.00,WeatherDisplay:10.37,2013-01-24 16:59:00,
2013-01-24 12:04:00,8.6,-9.8,30.12,WNW,300,5.4,11.5,42,0.00,,,0.00,WeatherDisplay:10.37,2013-01-24 17:04:00,
2013-01-24 12:09:00,8.6,-9.8,30.12,North,355,7.7,12.0,42,0.00,,,0.00,WeatherDisplay:10.37,2013-01-24 17:09:00,
2013-01-24 12:14:00,8.7,-9.8,30.12,NW,318,6.2,9.2,42,0.00,,,0.00,WeatherDisplay:10.37,2013-01-24 17:14:00,
2013-01-24 12:19:00,8.7,-10.2,30.11,West,268,3.3,6.9,41,0.00,,,0.00,WeatherDisplay:10.37,2013-01-24 17:19:00,
2013-01-24 12:24:00,8.8,-9.7,30.13,WNW,294,6.2,11.5,42,0.00,,,0.00,WeatherDisplay:10.37,2013-01-24 17:24:00,
2013-01-24 12:29:00,8.9,-10.1,30.12,SSW,209,5.2,13.8,41,0.00,,,0.00,WeatherDisplay:10.37,2013-01-24 17:29:00,
2013-01-24 12:34:00,9.0,-10.0,30.11,WNW,294,3.4,8.1,41,0.00,,,0.00,WeatherDisplay:10.37,2013-01-24 17:34:00,
2013-01-24 12:39:00,9.2,-9.8,30.11,WNW,296,2.1,5.8,41,0.00,,,0.00,WeatherDisplay:10.37,2013-01-24 17:39:00,
2013-01-24 12:44:00,9.5,-9.5,30.11,NNW,347,3.8,8.1,41,0.00,,,0.00,WeatherDisplay:10.37,2013-01-24 17:44:00,
2013-01-24 12:49:00,9.6,-9.9,30.11,NE,44,6.9,11.5,40,0.00,,,0.00,WeatherDisplay:10.37,2013-01-24 17:49:00,
2013-01-24 12:54:00,10.0,-9.1,30.11,West,267,6.6,6.6,41,0.00,,,0.00,WeatherDisplay:10.37,2013-01-24 17:54:00,
2013-01-24 12:59:00,10.4,-9.7,30.11,NW,306,7.4,11.5,39,0.00,,,0.00,WeatherDisplay:10.37,2013-01-24 17:59:00,
2013-01-24 13:04:00,10.4,-9.2,30.10,West,260,5.8,8.1,40,0.00,,,0.00,WeatherDisplay:10.37,2013-01-24 18:04:00,
2013-01-24 13:09:00,10.5,-10.1,30.10,NNW,329,6.9,12.7,38,0.00,,,0.00,WeatherDisplay:10.37,2013-01-24 18:09:00,
2013-01-24 13:14:00,10.7,-9.4,30.09,NNW,331,4.1,6.9,39,0.00,,,0.00,WeatherDisplay:10.37,2013-01-24 18:14:00,
2013-01-24 13:19:00,10.9,-8.7,30.09,NW,324,4.4,5.8,40,0.00,,,0.00,WeatherDisplay:10.37,2013-01-24 18:19:00,
2013-01-24 13:24:00,11.3,-8.9,30.08,West,270,4.5,8.1,39,0.00,,,0.00,WeatherDisplay:10.37,2013-01-24 18:24:00,
2013-01-24 13:29:00,11.5,-8.7,30.08,NW,316,4.8,8.1,39,0.00,,,0.00,WeatherDisplay:10.37,2013-01-24 18:29:00,
2013-01-24 13:34:00,11.6,-8.1,30.08,NW,325,3.6,8.1,40,0.00,,,0.00,WeatherDisplay:10.37,2013-01-24 18:34:00,
2013-01-24 13:39:00,11.6,-8.1,30.08,NW,313,2.3,8.1,40,0.00,,,0.00,WeatherDisplay:10.37,2013-01-24 18:39:00,
2013-01-24 13:44:00,11.7,-8.0,30.08,West,272,4.5,5.8,40,0.00,,,0.00,WeatherDisplay:10.37,2013-01-24 18:44:00,
2013-01-24 13:49:00,11.9,-8.4,30.08,NW,306,3.9,9.2,39,0.00,,,0.00,WeatherDisplay:10.37,2013-01-24 18:49:00,
2013-01-24 13:54:00,12.2,-8.6,30.08,West,261,3.7,5.0,38,0.00,,,0.00,WeatherDisplay:10.37,2013-01-24 18:54:00,
2013-01-24 13:59:00,12.5,-8.3,30.08,WNW,294,6.0,11.5,38,0.00,,,0.00,WeatherDisplay:10.37,2013-01-24 18:59:00,
2013-01-24 14:04:00,12.7,-8.7,30.08,NNW,348,4.8,10.4,37,0.00,,,0.00,WeatherDisplay:10.37,2013-01-24 19:04:00,
2013-01-24 14:09:00,13.0,-7.9,30.08,WNW,296,4.7,8.1,38,0.00,,,0.00,WeatherDisplay:10.37,2013-01-24 19:09:00,
2013-01-24 14:14:00,12.9,-8.5,30.08,NNW,344,4.0,6.9,37,0.00,,,0.00,WeatherDisplay:10.37,2013-01-24 19:14:00,
2013-01-24 14:19:00,12.9,-9.1,30.08,NW,307,4.6,12.7,36,0.00,,,0.00,WeatherDisplay:10.37,2013-01-24 19:19:00,
2013-01-24 14:24:00,13.1,-7.8,30.09,WSW,237,5.1,10.4,38,0.00,,,0.00,WeatherDisplay:10.37,2013-01-24 19:24:00,
2013-01-24 14:29:00,13.0,-9.0,30.08,West,269,7.1,8.1,36,0.00,,,0.00,WeatherDisplay:10.37,2013-01-24 19:29:00,
2013-01-24 14:34:00,12.8,-9.2,30.08,NNW,329,3.8,6.9,36,0.00,,,0.00,WeatherDisplay:10.37,2013-01-24 19:34:00,
2013-01-24 14:39:00,12.8,-9.2,30.08,NNE,30,4.6,6.9,36,0.00,,,0.00,WeatherDisplay:10.37,2013-01-24 19:39:00,
2013-01-24 14:44:00,12.8,-8.6,30.09,WNW,284,3.5,5.8,37,0.00,,,0.00,WeatherDisplay:10.37,2013-01-24 19:44:00,
2013-01-24 14:49:00,12.7,-8.7,30.09,WNW,290,5.2,8.1,37,0.00,,,0.00,WeatherDisplay:10.37,2013-01-24 19:49:00,
2013-01-24 14:54:00,12.3,-9.1,30.08,NW,317,3.6,8.1,37,0.00,,,0.00,WeatherDisplay:10.37,2013-01-24 19:54:00,
2013-01-24 14:59:00,11.8,-9.0,30.09,WNW,294,4.6,8.1,38,0.00,,,0.00,WeatherDisplay:10.37,2013-01-24 19:59:00,
2013-01-24 15:04:00,11.4,-8.8,30.09,West,264,4.4,6.9,39,0.00,,,0.00,WeatherDisplay:10.37,2013-01-24 20:04:00,
2013-01-24 15:09:00,11.5,-9.2,30.09,SW,222,4.0,8.1,38,0.00,,,0.00,WeatherDisplay:10.37,2013-01-24 20:09:00,
2013-01-24 15:14:00,11.6,-8.1,30.09,WNW,303,3.7,11.5,40,0.00,,,0.00,WeatherDisplay:10.37,2013-01-24 20:14:00,
2013-01-24 15:19:00,11.5,-9.2,30.09,NW,311,5.3,10.4,38,0.00,,,0.00,WeatherDisplay:10.37,2013-01-24 20:19:00,
2013-01-24 15:24:00,11.5,-8.7,30.09,SW,235,5.3,7.0,39,0.00,,,0.00,WeatherDisplay:10.37,2013-01-24 20:24:00,
2013-01-24 15:29:00,11.5,-8.7,30.09,WNW,300,4.9,9.2,39,0.00,,,0.00,WeatherDisplay:10.37,2013-01-24 20:29:00,
2013-01-24 15:34:00,11.5,-8.7,30.10,WNW,284,6.8,12.7,39,0.00,,,0.00,WeatherDisplay:10.37,2013-01-24 20:34:00,
2013-01-24 15:39:00,11.6,-9.7,30.09,West,271,5.7,8.1,37,0.00,,,0.00,WeatherDisplay:10.37,2013-01-24 20:39:00,
2013-01-24 15:44:00,11.7,-9.1,30.09,NNW,341,2.0,4.6,38,0.00,,,0.00,WeatherDisplay:10.37,2013-01-24 20:44:00,
2013-01-24 15:49:00,11.8,-9.0,30.09,WNW,292,8.2,15.0,38,0.00,,,0.00,WeatherDisplay:10.37,2013-01-24 20:49:00,
2013-01-24 15:54:00,11.9,-8.4,30.08,NNW,333,7.4,11.5,39,0.00,,,0.00,WeatherDisplay:10.37,2013-01-24 20:54:00,
2013-01-24 15:59:00,12.0,-8.8,30.08,WNW,298,5.0,12.0,38,0.00,,,0.00,WeatherDisplay:10.37,2013-01-24 20:59:00,
2013-01-24 16:04:00,11.9,-8.3,30.08,WNW,296,7.0,14.0,39,0.00,,,0.00,WeatherDisplay:10.37,2013-01-24 21:04:00,
2013-01-24 16:09:00,11.9,-8.9,30.08,WNW,302,5.0,14.0,38,0.00,,,0.00,WeatherDisplay:10.37,2013-01-24 21:09:00,
2013-01-24 16:14:00,11.9,-8.4,30.08,WNW,300,7.0,17.0,39,0.00,,,0.00,WeatherDisplay:10.37,2013-01-24 21:14:00,
2013-01-24 16:19:00,11.9,-8.4,30.09,WNW,301,5.0,12.0,39,0.00,,,0.00,WeatherDisplay:10.37,2013-01-24 21:19:00,
2013-01-24 16:24:00,11.8,-8.4,30.09,WNW,298,6.0,10.0,39,0.00,,,0.00,WeatherDisplay:10.37,2013-01-24 21:24:00,
2013-01-24 16:29:00,11.8,-7.9,30.08,WNW,294,5.0,12.0,40,0.00,,,0.00,WeatherDisplay:10.37,2013-01-24 21:29:00,
2013-01-24 16:34:00,11.8,-8.4,30.08,WNW,297,3.0,16.0,39,0.00,,,0.00,WeatherDisplay:10.37,2013-01-24 21:34:00,
2013-01-24 16:39:00,11.7,-8.0,30.09,WNW,291,7.0,12.0,40,0.00,,,0.00,WeatherDisplay:10.37,2013-01-24 21:39:00,
2013-01-24 16:44:00,11.7,-8.5,30.09,WNW,288,6.0,12.0,39,0.00,,,0.00,WeatherDisplay:10.37,2013-01-24 21:44:00,
2013-01-24 16:49:00,11.6,-8.6,30.09,WNW,292,7.0,12.0,39,0.00,,,0.00,WeatherDisplay:10.37,2013-01-24 21:49:00,
2013-01-24 16:54:00,11.6,-8.1,30.09,WNW,291,3.0,9.0,40,0.00,,,0.00,WeatherDisplay:10.37,2013-01-24 21:54:00,
2013-01-24 16:59:00,11.3,-8.4,30.09,WNW,295,6.0,12.0,40,0.00,,,0.00,WeatherDisplay:10.37,2013-01-24 21:59:00,
2013-01-24 17:04:00,11.4,-8.3,30.09,WNW,293,5.0,13.0,40,0.00,,,0.00,WeatherDisplay:10.37,2013-01-24 22:04:00,
2013-01-24 17:09:00,11.4,-8.8,30.09,WNW,289,6.0,13.0,39,0.00,,,0.00,WeatherDisplay:10.37,2013-01-24 22:09:00,
2013-01-24 17:14:00,11.3,-8.4,30.09,WNW,290,5.0,9.0,40,0.00,,,0.00,WeatherDisplay:10.37,2013-01-24 22:14:00,
2013-01-24 17:19:00,11.2,-8.5,30.09,WNW,282,6.0,12.0,40,0.00,,,0.00,WeatherDisplay:10.37,2013-01-24 22:19:00,
2013-01-24 17:24:00,11.2,-9.0,30.09,WNW,284,7.0,12.0,39,0.00,,,0.00,WeatherDisplay:10.37,2013-01-24 22:24:00,
2013-01-24 17:29:00,11.1,-8.6,30.10,WNW,287,8.0,13.0,40,0.00,,,0.00,WeatherDisplay:10.37,2013-01-24 22:29:00,
2013-01-24 17:34:00,11.1,-8.6,30.10,WNW,293,5.0,13.0,40,0.00,,,0.00,WeatherDisplay:10.37,2013-01-24 22:34:00,
2013-01-24 17:39:00,10.9,-7.3,30.10,WNW,295,6.0,15.0,43,0.00,,,0.00,WeatherDisplay:10.37,2013-01-24 22:39:00,
2013-01-24 17:45:00,11.0,-9.2,30.10,West,264,4.8,8.1,39,0.00,,,0.00,WeatherDisplay:10.37,2013-01-24 22:45:00,
2013-01-24 17:50:00,10.9,-8.7,30.11,NNW,329,5.5,11.5,40,0.00,,,0.00,WeatherDisplay:10.37,2013-01-24 22:50:00,
2013-01-24 17:55:00,10.9,-9.3,30.11,WNW,288,4.0,5.8,39,0.00,,,0.00,WeatherDisplay:10.37,2013-01-24 22:55:00,
2013-01-24 18:00:00,10.8,-8.8,30.11,West,261,5.4,12.7,40,0.00,,,0.00,WeatherDisplay:10.37,2013-01-24 23:00:00,
2013-01-24 18:05:00,10.8,-9.4,30.11,WSW,244,4.3,8.1,39,0.00,,,0.00,WeatherDisplay:10.37,2013-01-24 23:05:00,
2013-01-24 18:10:00,10.7,-8.9,30.12,WNW,301,5.1,10.4,40,0.00,,,0.00,WeatherDisplay:10.37,2013-01-24 23:10:00,
2013-01-24 18:15:00,10.7,-9.4,30.12,WNW,293,5.5,10.4,39,0.00,,,0.00,WeatherDisplay:10.37,2013-01-24 23:15:00,
2013-01-24 18:20:00,10.5,-9.1,30.12,West,265,3.8,8.1,40,0.00,,,0.00,WeatherDisplay:10.37,2013-01-24 23:20:00,
2013-01-24 18:25:00,10.4,-9.2,30.12,NW,319,4.5,6.9,40,0.00,,,0.00,WeatherDisplay:10.37,2013-01-24 23:25:00,
2013-01-24 18:30:00,10.3,-9.3,30.13,NW,308,3.7,8.1,40,0.00,,,0.00,WeatherDisplay:10.37,2013-01-24 23:30:00,
2013-01-24 18:35:00,10.3,-9.8,30.13,WNW,284,4.8,6.9,39,0.00,,,0.00,WeatherDisplay:10.37,2013-01-24 23:35:00,
2013-01-24 18:40:00,10.3,-8.8,30.13,WSW,248,5.6,5.6,41,0.00,,,0.00,WeatherDisplay:10.37,2013-01-24 23:40:00,
2013-01-24 18:45:00,10.3,-9.3,30.14,NW,315,3.8,4.6,40,0.00,,,0.00,WeatherDisplay:10.37,2013-01-24 23:45:00,
2013-01-24 18:50:00,10.2,-9.9,30.14,NW,321,6.1,8.1,39,0.00,,,0.00,WeatherDisplay:10.37,2013-01-24 23:50:00,
2013-01-24 18:55:00,10.1,-9.0,30.15,WNW,284,5.5,5.8,41,0.00,,,0.00,WeatherDisplay:10.37,2013-01-24 23:55:00,
2013-01-24 19:00:00,10.1,-10.0,30.15,NNW,336,5.3,6.9,39,0.00,,,0.00,WeatherDisplay:10.37,2013-01-25 00:00:00,
2013-01-24 19:05:00,10.0,-9.6,30.15,West,279,5.4,7.0,40,0.00,,,0.00,WeatherDisplay:10.37,2013-01-25 00:05:00,
2013-01-24 19:10:00,10.1,-10.5,30.15,WNW,293,3.2,8.1,38,0.00,,,0.00,WeatherDisplay:10.37,2013-01-25 00:10:00,
2013-01-24 19:15:00,9.9,-8.7,30.15,WSW,252,5.1,5.1,42,0.00,,,0.00,WeatherDisplay:10.37,2013-01-25 00:15:00,
2013-01-24 19:20:00,9.9,-9.7,30.15,NW,315,6.1,11.0,40,0.00,,,0.00,WeatherDisplay:10.37,2013-01-25 00:20:00,
2013-01-24 19:25:00,10.0,-9.6,30.15,WNW,288,3.1,6.9,40,0.00,,,0.00,WeatherDisplay:10.37,2013-01-25 00:25:00,
2013-01-24 19:30:00,9.8,-9.2,30.15,NW,304,3.7,6.9,41,0.00,CLR,,0.00,WeatherDisplay:10.37,2013-01-25 00:30:00,
2013-01-24 19:35:00,9.6,-9.4,30.15,WNW,293,4.5,11.5,41,0.00,CLR,,0.00,WeatherDisplay:10.37,2013-01-25 00:35:00,
2013-01-24 19:40:00,9.5,-9.0,30.15,West,275,4.0,5.8,42,0.00,CLR,,0.00,WeatherDisplay:10.37,2013-01-25 00:40:00,
2013-01-24 19:45:00,9.5,-9.0,30.15,WNW,286,3.2,4.6,42,0.00,CLR,,0.00,WeatherDisplay:10.37,2013-01-25 00:45:00,
2013-01-24 19:50:00,9.4,-9.6,30.16,West,279,4.0,6.9,41,0.00,CLR,,0.00,WeatherDisplay:10.37,2013-01-25 00:50:00,
2013-01-24 19:55:00,9.4,-9.6,30.16,West,276,2.0,5.8,41,0.00,CLR,,0.00,WeatherDisplay:10.37,2013-01-25 00:55:00,
2013-01-24 20:00:00,9.4,-9.6,30.16,NW,305,2.2,3.0,41,0.00,CLR,,0.00,WeatherDisplay:10.37,2013-01-25 01:00:00,
2013-01-24 20:05:00,9.3,-9.7,30.16,WSW,246,3.0,3.5,41,0.00,CLR,,0.00,WeatherDisplay:10.37,2013-01-25 01:05:00,
2013-01-24 20:10:00,9.3,-9.7,30.16,NW,308,1.7,3.5,41,0.00,CLR,,0.00,WeatherDisplay:10.37,2013-01-25 01:10:00,
2013-01-24 20:15:00,9.0,-9.0,30.16,WNW,300,2.6,3.5,43,0.00,CLR,,0.00,WeatherDisplay:10.37,2013-01-25 01:15:00,
2013-01-24 20:20:00,8.9,-9.1,30.16,West,259,2.5,3.5,43,0.00,CLR,,0.00,WeatherDisplay:10.37,2013-01-25 01:20:00,
2013-01-24 20:25:00,8.9,-9.6,30.16,West,277,2.8,4.6,42,0.00,CLR,,0.00,WeatherDisplay:10.37,2013-01-25 01:25:00,
2013-01-24 20:30:00,8.8,-8.7,30.16,NW,322,2.6,4.0,44,0.00,CLR,,0.00,WeatherDisplay:10.37,2013-01-25 01:30:00,
2013-01-24 20:35:00,8.7,-9.3,30.17,WNW,294,3.5,3.5,43,0.00,CLR,,0.00,WeatherDisplay:10.37,2013-01-25 01:35:00,
2013-01-24 20:40:00,8.7,-9.8,30.17,NW,324,3.9,6.9,42,0.00,CLR,,0.00,WeatherDisplay:10.37,2013-01-25 01:40:00,
2013-01-24 20:45:00,8.8,-9.7,30.17,WNW,302,4.3,4.6,42,0.00,CLR,,0.00,WeatherDisplay:10.37,2013-01-25 01:45:00,
2013-01-24 20:50:00,8.7,-9.3,30.17,NW,308,4.4,8.0,43,0.00,CLR,,0.00,WeatherDisplay:10.37,2013-01-25 01:50:00,
2013-01-24 20:55:00,8.7,-9.3,30.18,West,275,6.2,9.2,43,0.00,CLR,,0.00,WeatherDisplay:10.37,2013-01-25 01:55:00,
2013-01-24 21:00:00,8.7,-9.8,30.17,WNW,294,3.5,6.9,42,0.00,CLR,,0.00,WeatherDisplay:10.37,2013-01-25 02:00:00,
2013-01-24 21:05:00,8.5,-9.0,30.17,WSW,241,3.6,8.1,44,0.00,CLR,,0.00,WeatherDisplay:10.37,2013-01-25 02:05:00,
2013-01-24 21:10:00,8.4,-9.5,30.17,NW,313,2.9,9.2,43,0.00,CLR,,0.00,WeatherDisplay:10.37,2013-01-25 02:10:00,
2013-01-24 21:15:00,8.3,-9.2,30.17,West,265,4.3,11.5,44,0.00,CLR,,0.00,WeatherDisplay:10.37,2013-01-25 02:15:00,
2013-01-24 21:20:00,8.3,-9.2,30.18,NW,322,4.5,11.5,44,0.00,CLR,,0.00,WeatherDisplay:10.37,2013-01-25 02:20:00,
2013-01-24 21:25:00,8.3,-9.2,30.18,WNW,284,4.2,5.8,44,0.00,CLR,,0.00,WeatherDisplay:10.37,2013-01-25 02:25:00,
2013-01-24 21:30:00,8.2,-9.7,30.18,West,264,4.9,8.1,43,0.00,CLR,,0.00,WeatherDisplay:10.37,2013-01-25 02:30:00,
2013-01-24 21:35:00,8.3,-9.6,30.19,NNE,23,6.1,8.1,43,0.00,CLR,,0.00,WeatherDisplay:10.37,2013-01-25 02:35:00,
2013-01-24 21:40:00,8.3,-9.6,30.20,WSW,257,3.1,5.8,43,0.00,CLR,,0.00,WeatherDisplay:10.37,2013-01-25 02:40:00,
2013-01-24 21:45:00,8.2,-8.8,30.19,NW,312,2.9,3.5,45,0.00,CLR,,0.00,WeatherDisplay:10.37,2013-01-25 02:45:00,
2013-01-24 21:50:00,8.0,-9.4,30.19,NW,309,4.0,6.9,44,0.00,CLR,,0.00,WeatherDisplay:10.37,2013-01-25 02:50:00,
2013-01-24 21:55:00,7.8,-8.7,30.20,NW,321,7.0,9.0,46,0.00,CLR,,0.00,WeatherDisplay:10.37,2013-01-25 02:55:00,
2013-01-24 22:00:00,7.8,-8.7,30.20,SSW,200,4.7,6.9,46,0.00,CLR,,0.00,WeatherDisplay:10.37,2013-01-25 03:00:00,
2013-01-24 22:05:00,7.8,-8.7,30.19,WNW,283,7.8,15.0,46,0.00,CLR,,0.00,WeatherDisplay:10.37,2013-01-25 03:05:00,
2013-01-24 22:10:00,7.8,-9.2,30.19,NW,304,5.3,5.8,45,0.00,CLR,,0.00,WeatherDisplay:10.37,2013-01-25 03:10:00,
2013-01-24 22:15:00,7.8,-9.6,30.19,WNW,303,7.7,9.2,44,0.00,CLR,,0.00,WeatherDisplay:10.37,2013-01-25 03:15:00,
2013-01-24 22:20:00,7.7,-9.3,30.19,WSW,252,5.9,9.0,45,0.00,CLR,,0.00,WeatherDisplay:10.37,2013-01-25 03:20:00,
2013-01-24 22:25:00,7.5,-9.0,30.19,NW,309,6.4,9.2,46,0.00,CLR,,0.00,WeatherDisplay:10.37,2013-01-25 03:25:00,
2013-01-24 22:30:00,7.5,-9.0,30.19,NW,308,7.4,15.0,46,0.00,CLR,,0.00,WeatherDisplay:10.37,2013-01-25 03:30:00,
2013-01-24 22:35:00,7.4,-9.1,30.19,WNW,294,6.0,8.1,46,0.00,CLR,,0.00,WeatherDisplay:10.37,2013-01-25 03:35:00,
2013-01-24 22:40:00,7.3,-9.2,30.19,West,271,7.2,10.4,46,0.00,CLR,,0.00,WeatherDisplay:10.37,2013-01-25 03:40:00,
2013-01-24 22:45:00,7.3,-8.7,30.19,WNW,284,5.0,10.4,47,0.00,CLR,,0.00,WeatherDisplay:10.37,2013-01-25 03:45:00,
2013-01-24 22:50:00,7.3,-8.7,30.20,WNW,300,9.2,13.8,47,0.00,CLR,,0.00,WeatherDisplay:10.37,2013-01-25 03:50:00,
2013-01-24 22:55:00,7.2,-8.8,30.20,NW,325,5.8,12.0,47,0.00,CLR,,0.00,WeatherDisplay:10.37,2013-01-25 03:55:00,
2013-01-24 23:00:00,7.1,-8.5,30.20,NW,304,4.2,5.8,48,0.00,CLR,,0.00,WeatherDisplay:10.37,2013-01-25 04:00:00,
2013-01-24 23:05:00,7.0,-8.6,30.22,WNW,302,2.1,11.5,48,0.00,CLR,,0.00,WeatherDisplay:10.37,2013-01-25 04:05:00,
2013-01-24 23:10:00,7.0,-8.2,30.22,West,259,3.3,5.8,49,0.00,CLR,,0.00,WeatherDisplay:10.37,2013-01-25 04:10:00,
2013-01-24 23:15:00,7.0,-8.6,30.23,South,185,3.0,3.5,48,0.00,CLR,,0.00,WeatherDisplay:10.37,2013-01-25 04:15:00,
2013-01-24 23:20:00,7.0,-8.2,30.23,WSW,257,2.0,3.5,49,0.00,CLR,,0.00,WeatherDisplay:10.37,2013-01-25 04:20:00,
2013-01-24 23:25:00,6.8,-8.4,30.24,NW,304,2.1,4.6,49,0.00,CLR,,0.00,WeatherDisplay:10.37,2013-01-25 04:25:00,
2013-01-24 23:30:00,6.8,-7.9,30.24,WNW,287,3.4,9.2,50,0.00,CLR,,0.00,WeatherDisplay:10.37,2013-01-25 04:30:00,
2013-01-24 23:35:00,6.8,-7.9,30.24,ENE,65,4.8,5.8,50,0.00,CLR,,0.00,WeatherDisplay:10.37,2013-01-25 04:35:00,
2013-01-24 23:40:00,6.7,-7.6,30.23,SW,231,3.6,9.2,51,0.00,CLR,,0.00,WeatherDisplay:10.37,2013-01-25 04:40:00,
2013-01-24 23:45:00,6.7,-7.6,30.23,West,267,2.0,11.5,51,0.00,CLR,,0.00,WeatherDisplay:10.37,2013-01-25 04:45:00,
2013-01-24 23:50:00,6.6,-7.3,30.23,WNW,299,3.3,10.4,52,0.00,CLR,,0.00,WeatherDisplay:10.37,2013-01-25 04:50:00,
2013-01-24 23:55:00,6.5,-7.4,30.24,West,262,3.4,10.4,52,0.00,CLR,,0.00,WeatherDisplay:10.37,2013-01-25 04:55:00,